Weather Roundup
Issued by NWS

Home | Current Version | Previous Version | Graphics & Text | Print | Product List | Glossary Off
Versions: 1 2 3 4 5 6 7 8 9 10 11 12 13 14 15 16 17 18 19 20 21 22 23 24 25 26 27 28 29 30 31 32 33 34 35 36 37 38 39 40 41 42 43 44 45 46 47 48 49 50

710
NZUS93 KARX 222310
HRRWXR

CURRENT HOURLY OBSERVATIONS ACROSS
MUCH OF THE UPPER MISSISSIPPI VALLEY
NATIONAL WEATHER SERVICE LA CROSSE WI
500 PM CST WED FEB 22 2017


...SOUTHEAST MINNESOTA...


CITY           SKY/WX    TMP DP  RH WIND       PRES   REMARKS
ROCHESTER      CLEAR     56  47  71 SW3       29.57S
ROCHESTER/MAYO FAIR      58  46  63 CALM      29.56F
WINONA         PTCLDY    57  41  54 W3        29.57R
AUSTIN         CLEAR     57  45  62 W7        29.58R
ALBERT LEA     CLEAR     59  46  63 W7        29.59R
DODGE CENTER   CLEAR     55  46  71 SW6       29.57S
PRESTON        CLEAR     54  44  68 W10       29.59R
OWATONNA       CLEAR     57  46  67 SW7       29.58R
FARIBAULT      CLEAR     59  46  63 SW8       29.58R
$$

...ELSEWHERE IN MINNESOTA...


CITY           SKY/WX    TMP DP  RH WIND       PRES   REMARKS
MINNEAPOLIS    PTCLDY    54  44  69 NW16      29.57R
INTNL FALLS    CLOUDY    33  28  81 N13       29.72R WCI  24
DULUTH         LGT RAIN  38  33  82 SE13      29.56S WCI  30
RED WING       PTCLDY    57  41  54 SW3       29.54R
REDWOOD FALLS  PTCLDY    47  39  74 NW16G23   29.64R
MANKATO          N/A     58  48  69 NW14      29.59R
WORTHINGTON    CLEAR     52  45  77 NW20      29.65R
FAIRMONT       CLEAR     61  45  55 W12       29.60R
$$

...SOUTHWEST WISCONSIN...


CITY           SKY/WX    TMP DP  RH WIND       PRES   REMARKS
LA CROSSE      CLEAR     61  41  47 NW8       29.54R
PRAIRIE DU CHI CLEAR     67  38  34 W9        29.52S
BOSCOBEL       CLEAR     70  43  37 W7        29.52R
LONE ROCK      PTCLDY    69  47  45 SW8       29.52R
PLATTEVILLE    CLEAR     67  50  54 S15G21    29.54R
FORT MC COY    CLEAR     60  40  48 W5        29.55S
CAMP DOUGLAS   PTCLDY    61  39  44 W6        29.54R
MAUSTON-NEW LI CLEAR     61  43  51 NW6       29.53R
VIROQUA        FAIR      60  41  50 W7        29.54F
WIS DELLS      CLEAR     65  44  47 SW6       29.52R
$$

...ELSEWHERE IN WISCONSIN...


CITY           SKY/WX    TMP DP  RH WIND       PRES   REMARKS
MILWAUKEE      PTCLDY    67  51  56 S18G26    29.55F
MADISON        PTCLDY    66  49  54 SW8       29.52R
GREEN BAY      MOCLDY    58  49  72 N9        29.53R
EAU CLAIRE     MOCLDY    55  40  56 SW5       29.54R
BLACK RVR FLS  FAIR      56  36  45 CALM      29.53F
MEDFORD        MOCLDY    50  41  70 SW3       29.54R
WAUSAU         CLOUDY    52  38  58 S6        29.50F
WIS RAPIDS     MOCLDY    58  37  45 CALM      29.55R
MARSHFIELD     CLOUDY    51  42  71 S10       29.53R
RICE LAKE      CLOUDY    49  45  85 CALM      29.57R
$$

...NORTHEAST IOWA...


CITY           SKY/WX    TMP DP  RH WIND       PRES   REMARKS
WATERLOO       CLEAR     64  44  48 W13       29.58R
DUBUQUE        CLEAR     66  49  54 S15       29.54R
DECORAH        CLEAR     61  45  55 NW9       29.55R
MASON CITY     CLEAR     58  46  64 W9        29.60S
CHARLES CITY   CLEAR     57  46  67 NW17G24   29.59R
OELWEIN        CLEAR     63  46  55 W10       29.57R
$$

...ELSEWHERE IN IOWA...


CITY           SKY/WX    TMP DP  RH WIND       PRES   REMARKS
DES MOINES     PTCLDY    70  41  34 NW15      29.61R
IOWA CITY      CLEAR     74  41  30 SW13      29.56R
FORT DODGE     CLEAR     64  45  48 W7        29.63R
MARSHALLTOWN   CLEAR     64  45  49 W12       29.59R
CEDAR RAPIDS   CLEAR     69  42  37 W13       29.55R
$$

...NORTHERN ILLINOIS...


CITY           SKY/WX    TMP DP  RH WIND       PRES   REMARKS
CHICAGO-OHARE  CLEAR     67  51  56 S14       29.62F
CHICAGO-MIDWAY PTCLDY    67  53  61 S17G24    29.63F
MOLINE         CLEAR    N/A N/A N/A S14G22    29.58R
ROCKFORD       CLEAR     66  52  60 S21G28    29.58F
PEORIA         CLEAR     64  55  72 S18       29.64F
$$

NOTE: "FAIR" INDICATES FEW OR NO CLOUDS BELOW 12,000 FEET WITH NO
SIGNIFICANT WEATHER AND/OR OBSTRUCTIONS TO VISIBILITY. WIND
SPEEDS ARE IN MILES-PER-HOUR.




USA.gov is the U.S. government's official web portal to all federal, state and local government web resources and services.